Multibeam Report for RR1112


Ship Name: Roger Revelle
Chief Scientist: Rainville, Luc
NEPTUNE Canada
Source Organization: Rolling Deck to Repository
Start Date: 2011-08-04
End Date: 2011-08-11


View ISO Metadata

Visit the full NCEI Bathymetry Viewer


Multibeam Bathymetry

Cruise Details

Project: Internal Waves in Straits Experiment (IWISE)
Instrument: Kongsberg EM122

Data Quality

Number of Files: 195
Number of Records: 64792
BATHYMETRY DATA Quantity Percentage
Number of Beams 27990144 100%
Number of Good Beams 23561826 84.18%
Number of Zero Beams 0 0%
Number of Flagged Beams 4428318 15.82%
AMPLITUDE DATA Quantity Percentage
Number of Beams 27990144 100%
Number of Good Beams 23561826 84.18%
Number of Zero Beams 0 0%
Number of Flagged Beams 4428318 15.82%
SIDESCAN DATA Quantity Percentage
Number of Pixels 66347008 100%
Number of Good Pixels 30604831 46.13%
Number of Zero Pixels 0 0%
Number of Flagged Pixels 35742177 53.87%

Navigation Totals

Total Time: 89.9331 hours
Total Track Length: 1239.981 km
Average Speed: 13.788 km/hr (7.4449 knots)

Cruise Bounds

Northern Extent: 21.547909
Southern Extent: 19.340628
Western Extent: 120.06762
Eastern Extent: 121.67862

Limits

Minimum Sonar Depth 3.1118 Maximum Sonar Depth 8.2831
Minimum Altitude 724.9385 Maximum Altitude 11993.9512
Minimum Depth 602.2297 Maximum Depth 11999.9805
Minimum Amplitude 0 Maximum Amplitude 6.2
Minimum Sidescan 0 Maximum Sidescan 13.56

File Information

Full Resolution Bathymetry as collected (raw): 192

Files File Size Description
0000_20110804_141712_revelle.all.mb58.gz 45.12MB Kongsberg multibeam vendor format
0001_20110804_144645_revelle.all.mb58.gz 49.57MB Kongsberg multibeam vendor format
0002_20110804_151648_revelle.all.mb58.gz 51.06MB Kongsberg multibeam vendor format
0003_20110804_154644_revelle.all.mb58.gz 51.82MB Kongsberg multibeam vendor format
0004_20110804_161647_revelle.all.mb58.gz 43.86MB Kongsberg multibeam vendor format
0005_20110804_164645_revelle.all.mb58.gz 75.66MB Kongsberg multibeam vendor format
0006_20110804_171647_revelle.all.mb58.gz 65.79MB Kongsberg multibeam vendor format
0007_20110804_174647_revelle.all.mb58.gz 62.09MB Kongsberg multibeam vendor format
0008_20110804_181646_revelle.all.mb58.gz 50.77MB Kongsberg multibeam vendor format
0009_20110804_184647_revelle.all.mb58.gz 53.23MB Kongsberg multibeam vendor format
0010_20110804_191654_revelle.all.mb58.gz 60.17MB Kongsberg multibeam vendor format
0011_20110804_194646_revelle.all.mb58.gz 59.79MB Kongsberg multibeam vendor format
0012_20110804_201653_revelle.all.mb58.gz 59.99MB Kongsberg multibeam vendor format
0013_20110804_204647_revelle.all.mb58.gz 57.51MB Kongsberg multibeam vendor format
0014_20110804_211649_revelle.all.mb58.gz 54.05MB Kongsberg multibeam vendor format
0015_20110804_214652_revelle.all.mb58.gz 47.70MB Kongsberg multibeam vendor format
0016_20110804_221644_revelle.all.mb58.gz 51.54MB Kongsberg multibeam vendor format
0017_20110804_224646_revelle.all.mb58.gz 51.55MB Kongsberg multibeam vendor format
0018_20110804_231644_revelle.all.mb58.gz 51.98MB Kongsberg multibeam vendor format
0019_20110804_234649_revelle.all.mb58.gz 10.85MB Kongsberg multibeam vendor format
0020_20110805_084247_revelle.all.mb58.gz 4.02MB Kongsberg multibeam vendor format
0021_20110805_094145_revelle.all.mb58.gz 21.31MB Kongsberg multibeam vendor format
0022_20110805_103310_revelle.all.mb58.gz 59.43MB Kongsberg multibeam vendor format
0023_20110805_110317_revelle.all.mb58.gz 55.73MB Kongsberg multibeam vendor format
0024_20110805_113308_revelle.all.mb58.gz 54.92MB Kongsberg multibeam vendor format
0025_20110805_120311_revelle.all.mb58.gz 54.97MB Kongsberg multibeam vendor format
0026_20110805_123305_revelle.all.mb58.gz 59.01MB Kongsberg multibeam vendor format
0027_20110805_130314_revelle.all.mb58.gz 51.72MB Kongsberg multibeam vendor format
0028_20110805_133312_revelle.all.mb58.gz 45.37MB Kongsberg multibeam vendor format
0029_20110805_140312_revelle.all.mb58.gz 45.06MB Kongsberg multibeam vendor format
0030_20110805_143307_revelle.all.mb58.gz 46.71MB Kongsberg multibeam vendor format
0031_20110805_150311_revelle.all.mb58.gz 45.59MB Kongsberg multibeam vendor format
0032_20110805_153305_revelle.all.mb58.gz 46.11MB Kongsberg multibeam vendor format
0033_20110805_160305_revelle.all.mb58.gz 44.05MB Kongsberg multibeam vendor format
0034_20110805_163312_revelle.all.mb58.gz 46.17MB Kongsberg multibeam vendor format
0035_20110805_170309_revelle.all.mb58.gz 51.71MB Kongsberg multibeam vendor format
0036_20110805_173311_revelle.all.mb58.gz 55.38MB Kongsberg multibeam vendor format
0037_20110805_180315_revelle.all.mb58.gz 61.17MB Kongsberg multibeam vendor format
0038_20110805_183311_revelle.all.mb58.gz 59.97MB Kongsberg multibeam vendor format
0039_20110805_190308_revelle.all.mb58.gz 54.62MB Kongsberg multibeam vendor format
0040_20110805_193314_revelle.all.mb58.gz 53.01MB Kongsberg multibeam vendor format
0041_20110805_200305_revelle.all.mb58.gz 61.15MB Kongsberg multibeam vendor format
0042_20110805_203313_revelle.all.mb58.gz 53.03MB Kongsberg multibeam vendor format
0043_20110805_210309_revelle.all.mb58.gz 48.04MB Kongsberg multibeam vendor format
0044_20110805_213311_revelle.all.mb58.gz 35.33MB Kongsberg multibeam vendor format
0045_20110806_085840_revelle.all.mb58.gz 48.00MB Kongsberg multibeam vendor format
0046_20110806_092821_revelle.all.mb58.gz 47.63MB Kongsberg multibeam vendor format
0047_20110806_095821_revelle.all.mb58.gz 49.98MB Kongsberg multibeam vendor format
0048_20110806_102817_revelle.all.mb58.gz 46.38MB Kongsberg multibeam vendor format
0049_20110806_105816_revelle.all.mb58.gz 50.26MB Kongsberg multibeam vendor format
0050_20110806_112817_revelle.all.mb58.gz 56.15MB Kongsberg multibeam vendor format
0051_20110806_115819_revelle.all.mb58.gz 57.56MB Kongsberg multibeam vendor format
0052_20110806_122815_revelle.all.mb58.gz 50.44MB Kongsberg multibeam vendor format
0053_20110806_125821_revelle.all.mb58.gz 45.92MB Kongsberg multibeam vendor format
0054_20110806_132816_revelle.all.mb58.gz 46.20MB Kongsberg multibeam vendor format
0055_20110806_135820_revelle.all.mb58.gz 44.65MB Kongsberg multibeam vendor format
0056_20110806_142815_revelle.all.mb58.gz 57.37MB Kongsberg multibeam vendor format
0057_20110806_145822_revelle.all.mb58.gz 57.98MB Kongsberg multibeam vendor format
0058_20110806_152820_revelle.all.mb58.gz 51.88MB Kongsberg multibeam vendor format
0059_20110806_155814_revelle.all.mb58.gz 52.01MB Kongsberg multibeam vendor format
0060_20110806_162815_revelle.all.mb58.gz 53.52MB Kongsberg multibeam vendor format
0061_20110806_165819_revelle.all.mb58.gz 65.48MB Kongsberg multibeam vendor format
0062_20110806_172824_revelle.all.mb58.gz 59.17MB Kongsberg multibeam vendor format
0063_20110806_175821_revelle.all.mb58.gz 52.79MB Kongsberg multibeam vendor format
0064_20110806_182825_revelle.all.mb58.gz 57.42MB Kongsberg multibeam vendor format
0065_20110806_185823_revelle.all.mb58.gz 55.18MB Kongsberg multibeam vendor format
0066_20110806_192819_revelle.all.mb58.gz 44.71MB Kongsberg multibeam vendor format
0067_20110806_195815_revelle.all.mb58.gz 42.45MB Kongsberg multibeam vendor format
0068_20110806_202820_revelle.all.mb58.gz 45.90MB Kongsberg multibeam vendor format
0069_20110806_205823_revelle.all.mb58.gz 46.33MB Kongsberg multibeam vendor format
0070_20110806_212818_revelle.all.mb58.gz 48.09MB Kongsberg multibeam vendor format
0071_20110806_215823_revelle.all.mb58.gz 3.19MB Kongsberg multibeam vendor format
0072_20110807_090228_revelle.all.mb58.gz 45.25MB Kongsberg multibeam vendor format
0073_20110807_093206_revelle.all.mb58.gz 52.52MB Kongsberg multibeam vendor format
0074_20110807_100207_revelle.all.mb58.gz 53.00MB Kongsberg multibeam vendor format
0075_20110807_103214_revelle.all.mb58.gz 52.00MB Kongsberg multibeam vendor format
0076_20110807_110213_revelle.all.mb58.gz 50.69MB Kongsberg multibeam vendor format
0077_20110807_113203_revelle.all.mb58.gz 44.80MB Kongsberg multibeam vendor format
0078_20110807_120204_revelle.all.mb58.gz 53.16MB Kongsberg multibeam vendor format
0079_20110807_123215_revelle.all.mb58.gz 51.82MB Kongsberg multibeam vendor format
0080_20110807_130213_revelle.all.mb58.gz 50.09MB Kongsberg multibeam vendor format
0081_20110807_133215_revelle.all.mb58.gz 43.96MB Kongsberg multibeam vendor format
0082_20110807_140205_revelle.all.mb58.gz 42.26MB Kongsberg multibeam vendor format
0083_20110807_143206_revelle.all.mb58.gz 48.10MB Kongsberg multibeam vendor format
0084_20110807_150201_revelle.all.mb58.gz 65.09MB Kongsberg multibeam vendor format
0085_20110807_153203_revelle.all.mb58.gz 45.58MB Kongsberg multibeam vendor format
0086_20110807_160209_revelle.all.mb58.gz 45.96MB Kongsberg multibeam vendor format
0087_20110807_163210_revelle.all.mb58.gz 46.52MB Kongsberg multibeam vendor format
0088_20110807_170209_revelle.all.mb58.gz 51.14MB Kongsberg multibeam vendor format
0089_20110807_173201_revelle.all.mb58.gz 52.33MB Kongsberg multibeam vendor format
0090_20110807_180213_revelle.all.mb58.gz 50.27MB Kongsberg multibeam vendor format
0091_20110807_183201_revelle.all.mb58.gz 50.83MB Kongsberg multibeam vendor format
0092_20110807_190210_revelle.all.mb58.gz 54.20MB Kongsberg multibeam vendor format
0093_20110807_193214_revelle.all.mb58.gz 51.86MB Kongsberg multibeam vendor format
0094_20110807_200215_revelle.all.mb58.gz 49.88MB Kongsberg multibeam vendor format
0095_20110807_203209_revelle.all.mb58.gz 50.28MB Kongsberg multibeam vendor format
0096_20110807_210205_revelle.all.mb58.gz 46.26MB Kongsberg multibeam vendor format
0097_20110808_022742_revelle.all.mb58.gz 57.91MB Kongsberg multibeam vendor format
0098_20110808_025718_revelle.all.mb58.gz 62.37MB Kongsberg multibeam vendor format
0099_20110808_032724_revelle.all.mb58.gz 56.48MB Kongsberg multibeam vendor format
0100_20110808_035727_revelle.all.mb58.gz 55.06MB Kongsberg multibeam vendor format
0101_20110808_042720_revelle.all.mb58.gz 45.15MB Kongsberg multibeam vendor format
0102_20110808_045721_revelle.all.mb58.gz 48.41MB Kongsberg multibeam vendor format
0103_20110808_052723_revelle.all.mb58.gz 6.64MB Kongsberg multibeam vendor format
0104_20110808_075248_revelle.all.mb58.gz 41.05MB Kongsberg multibeam vendor format
0105_20110808_082222_revelle.all.mb58.gz 43.18MB Kongsberg multibeam vendor format
0106_20110808_085232_revelle.all.mb58.gz 42.81MB Kongsberg multibeam vendor format
0107_20110808_092228_revelle.all.mb58.gz 45.23MB Kongsberg multibeam vendor format
0108_20110808_095229_revelle.all.mb58.gz 43.18MB Kongsberg multibeam vendor format
0109_20110808_102233_revelle.all.mb58.gz 44.03MB Kongsberg multibeam vendor format
0110_20110808_105226_revelle.all.mb58.gz 55.90MB Kongsberg multibeam vendor format
0111_20110808_112230_revelle.all.mb58.gz 69.20MB Kongsberg multibeam vendor format
0112_20110808_115228_revelle.all.mb58.gz 68.47MB Kongsberg multibeam vendor format
0113_20110808_122231_revelle.all.mb58.gz 46.99MB Kongsberg multibeam vendor format
0114_20110808_125228_revelle.all.mb58.gz 48.96MB Kongsberg multibeam vendor format
0115_20110808_132235_revelle.all.mb58.gz 46.76MB Kongsberg multibeam vendor format
0116_20110808_135233_revelle.all.mb58.gz 44.68MB Kongsberg multibeam vendor format
0117_20110808_142233_revelle.all.mb58.gz 44.53MB Kongsberg multibeam vendor format
0118_20110808_145237_revelle.all.mb58.gz 41.92MB Kongsberg multibeam vendor format
0119_20110808_152238_revelle.all.mb58.gz 39.50MB Kongsberg multibeam vendor format
0120_20110808_155236_revelle.all.mb58.gz 43.74MB Kongsberg multibeam vendor format
0121_20110808_162238_revelle.all.mb58.gz 43.75MB Kongsberg multibeam vendor format
0122_20110808_165241_revelle.all.mb58.gz 43.85MB Kongsberg multibeam vendor format
0123_20110808_172237_revelle.all.mb58.gz 50.65MB Kongsberg multibeam vendor format
0124_20110808_175241_revelle.all.mb58.gz 46.02MB Kongsberg multibeam vendor format
0125_20110808_182241_revelle.all.mb58.gz 42.20MB Kongsberg multibeam vendor format
0126_20110808_185238_revelle.all.mb58.gz 55.14MB Kongsberg multibeam vendor format
0127_20110808_192238_revelle.all.mb58.gz 54.87MB Kongsberg multibeam vendor format
0128_20110808_195237_revelle.all.mb58.gz 54.43MB Kongsberg multibeam vendor format
0129_20110808_202240_revelle.all.mb58.gz 55.32MB Kongsberg multibeam vendor format
0130_20110808_205244_revelle.all.mb58.gz 55.51MB Kongsberg multibeam vendor format
0131_20110808_212237_revelle.all.mb58.gz 53.26MB Kongsberg multibeam vendor format
0132_20110808_215246_revelle.all.mb58.gz 51.23MB Kongsberg multibeam vendor format
0133_20110808_222235_revelle.all.mb58.gz 53.88MB Kongsberg multibeam vendor format
0134_20110808_225239_revelle.all.mb58.gz 53.87MB Kongsberg multibeam vendor format
0135_20110808_232242_revelle.all.mb58.gz 50.04MB Kongsberg multibeam vendor format
0136_20110808_235245_revelle.all.mb58.gz 52.19MB Kongsberg multibeam vendor format
0137_20110809_002238_revelle.all.mb58.gz 53.74MB Kongsberg multibeam vendor format
0138_20110809_005240_revelle.all.mb58.gz 54.75MB Kongsberg multibeam vendor format
0139_20110809_012236_revelle.all.mb58.gz 58.84MB Kongsberg multibeam vendor format
0140_20110809_015246_revelle.all.mb58.gz 52.31MB Kongsberg multibeam vendor format
0141_20110809_022243_revelle.all.mb58.gz 49.64MB Kongsberg multibeam vendor format
0142_20110809_025233_revelle.all.mb58.gz 51.82MB Kongsberg multibeam vendor format
0143_20110809_032245_revelle.all.mb58.gz 57.67MB Kongsberg multibeam vendor format
0144_20110809_035236_revelle.all.mb58.gz 57.94MB Kongsberg multibeam vendor format
0145_20110809_042236_revelle.all.mb58.gz 58.81MB Kongsberg multibeam vendor format
0146_20110809_045240_revelle.all.mb58.gz 56.73MB Kongsberg multibeam vendor format
0147_20110809_052234_revelle.all.mb58.gz 45.76MB Kongsberg multibeam vendor format
0148_20110809_055240_revelle.all.mb58.gz 51.92MB Kongsberg multibeam vendor format
0149_20110809_062237_revelle.all.mb58.gz 42.33MB Kongsberg multibeam vendor format
0150_20110809_065234_revelle.all.mb58.gz 88.38MB Kongsberg multibeam vendor format
0150_20110809_075938_revelle.all.mb58.gz 97.1KB Kongsberg multibeam vendor format
0151_20110809_080255_revelle.all.mb58.gz 11.71MB Kongsberg multibeam vendor format
0152_20110809_090402_revelle.all.mb58.gz 3.63MB Kongsberg multibeam vendor format
0154_20110809_092305_revelle.all.mb58.gz 0.61MB Kongsberg multibeam vendor format
0155_20110809_104504_revelle.all.mb58.gz 0.61MB Kongsberg multibeam vendor format
0156_20110809_104757_revelle.all.mb58.gz 22.4KB Kongsberg multibeam vendor format
0157_20110809_104821_revelle.all.mb58.gz 2.26MB Kongsberg multibeam vendor format
0158_20110809_133203_revelle.all.mb58.gz 12.87MB Kongsberg multibeam vendor format
0159_20110809_140204_revelle.all.mb58.gz 12.21MB Kongsberg multibeam vendor format
0160_20110809_143201_revelle.all.mb58.gz 12.71MB Kongsberg multibeam vendor format
0161_20110809_150203_revelle.all.mb58.gz 12.34MB Kongsberg multibeam vendor format
0162_20110809_153202_revelle.all.mb58.gz 12.86MB Kongsberg multibeam vendor format
0163_20110809_160207_revelle.all.mb58.gz 12.28MB Kongsberg multibeam vendor format
0164_20110809_163157_revelle.all.mb58.gz 3.14MB Kongsberg multibeam vendor format
0165_20110809_170217_revelle.all.mb58.gz 7.28MB Kongsberg multibeam vendor format
0166_20110809_173203_revelle.all.mb58.gz 6.70MB Kongsberg multibeam vendor format
0167_20110809_180205_revelle.all.mb58.gz 14.38MB Kongsberg multibeam vendor format
0168_20110809_183205_revelle.all.mb58.gz 6.50MB Kongsberg multibeam vendor format
0169_20110809_190158_revelle.all.mb58.gz 12.19MB Kongsberg multibeam vendor format
0170_20110809_193201_revelle.all.mb58.gz 13.20MB Kongsberg multibeam vendor format
0171_20110809_200159_revelle.all.mb58.gz 13.24MB Kongsberg multibeam vendor format
0172_20110809_203203_revelle.all.mb58.gz 13.40MB Kongsberg multibeam vendor format
0173_20110809_210204_revelle.all.mb58.gz 13.31MB Kongsberg multibeam vendor format
0174_20110809_213204_revelle.all.mb58.gz 4.70MB Kongsberg multibeam vendor format
0175_20110809_220205_revelle.all.mb58.gz 13.65MB Kongsberg multibeam vendor format
0176_20110809_223203_revelle.all.mb58.gz 13.46MB Kongsberg multibeam vendor format
0177_20110809_230202_revelle.all.mb58.gz 13.13MB Kongsberg multibeam vendor format
0178_20110809_233202_revelle.all.mb58.gz 13.03MB Kongsberg multibeam vendor format
0179_20110810_000159_revelle.all.mb58.gz 11.51MB Kongsberg multibeam vendor format
0180_20110810_104255_revelle.all.mb58.gz 12.53MB Kongsberg multibeam vendor format
0181_20110810_111253_revelle.all.mb58.gz 12.54MB Kongsberg multibeam vendor format
0182_20110810_114253_revelle.all.mb58.gz 16.68MB Kongsberg multibeam vendor format
0183_20110810_121259_revelle.all.mb58.gz 16.64MB Kongsberg multibeam vendor format
0184_20110810_124257_revelle.all.mb58.gz 16.78MB Kongsberg multibeam vendor format
0185_20110810_131255_revelle.all.mb58.gz 15.80MB Kongsberg multibeam vendor format
0186_20110810_134254_revelle.all.mb58.gz 16.71MB Kongsberg multibeam vendor format
0187_20110810_141256_revelle.all.mb58.gz 16.85MB Kongsberg multibeam vendor format
0188_20110810_144259_revelle.all.mb58.gz 17.80MB Kongsberg multibeam vendor format
0189_20110810_151253_revelle.all.mb58.gz 14.91MB Kongsberg multibeam vendor format
0190_20110810_154253_revelle.all.mb58.gz 9.62MB Kongsberg multibeam vendor format
0191_20110816_101052_revelle.all.mb58.gz 47.2KB Kongsberg multibeam vendor format

Metadata Files: 2

Files File Size Description
RR1112_Multibeam.xml NGDC created ISO metadata
xbt_bag_info.tar.gz 1.2KB Additional cruise information

Ancillary Files: 1

Files File Size Description
xbt.tar.gz 103.7KB Expendable Bathythermograph (XBT) data